Regional Weather Roundup
Issued by NWS State College, PA

Home | Current Version | Previous Version | Text Only | Print | Product List | Glossary On
Versions: 1 2 3 4 5 6 7 8 9 10 11 12 13 14 15 16 17 18 19 20 21 22 23 24 25 26 27 28 29 30 31 32 33 34 35 36 37 38 39 40 41 42 43 44 45 46 47 48 49 50
000
ASUS41 KCTP 010603
RWRCTP

REGIONAL WEATHER ROUNDUP
NATIONAL WEATHER SERVICE STATE COLLEGE PA
200 AM EDT TUE SEP 01 2015

Note: "fair" indicates few or no clouds below 12,000 feet with no
significant weather and/or obstructions to visibility.

* = STATION THAT DOES NOT REPORT PRECIPITATION /E.G. RAIN...SNOW...ETC/
    THUNDER OR FOG.

PAZ002>004-007>009-013>016-020>023-029>032-010700-
WESTERN PENNSYLVANIA

CITY           SKY/WX    TMP DP  RH WIND       PRES   REMARKS
ERIE           FAIR      67  62  84 S5        30.08S
MEADVILLE      FAIR      66  62  87 CALM      30.12S FOG
FRANKLIN*      CLOUDY    63  63 100 SW5       30.14S VSB 1/4
NEW CASTLE     FOG       67  67 100 CALM      30.12F VSB 1
BEAVER COUNTY  NOT AVBL
BUTLER*        FAIR      66  64  94 CALM      30.14S
PITTSBURGH INT FAIR      70  66  87 CALM      30.11S
PITTSBURGH     FAIR      73  63  70 CALM      30.11R
INDIANA*       MOCLDY    66  64  94 CALM      30.15S
LATROBE        NOT AVBL
WASHINGTON CO* FAIR      63  63 100 CALM      30.12F
$$

PAZ004>006-010>012-017>019-024>028-033>037-041-042-045-046-049>053-010700-
CENTRAL PENNSYLVANIA

CITY           SKY/WX    TMP DP  RH WIND       PRES   REMARKS
BRADFORD       FOG       57  55  93 CALM      30.14S VSB 1/2
DUBOIS         FAIR      68  65  90 CALM      30.12F FOG
CLEARFIELD     FAIR      66  64  93 CALM      30.12S FOG
JOHNSTOWN      FAIR      67  61  81 SW7       30.16S
ALTOONA        FAIR      66  62  87 SW3       30.12S
STATE COLLEGE  FAIR      68  65  92 CALM      30.09F
WILLIAMSPORT   FAIR      69  66  90 CALM      30.05R FOG
SELINSGROVE    FAIR      67  65  93 CALM      30.05S FOG
FT INDIANTOWN  FAIR      67  67  98 CALM      30.04F
CAPITAL CITY   FAIR      72  66  81 CALM      30.04S
HARRISBURG     FAIR      70  67  90 CALM      30.03F
YORK           FAIR      65  64  97 CALM      30.04  FOG
$$

PAZ038>040-043-044-047-048-054-055-060>062-067>071-010700-
EASTERN PENNSYLVANIA

CITY           SKY/WX    TMP DP  RH WIND       PRES   REMARKS
SCRANTON       FAIR      70  65  84 E6        30.06S
MOUNT POCONO   FAIR      66  62  87 NW3       30.10S
ALLENTOWN      FAIR      74  67  78 CALM      30.03S
QUAKERTOWN*    FAIR      68  68 100 CALM      30.04S
READING        FAIR      75  67  76 CALM      30.03S
LANCASTER      FAIR      70  68  93 CALM      30.04F
COATESVILLE    FAIR      72  68  88 W3        30.06F
POTTSTOWN      FAIR      73  69  87 CALM      30.04F
BLUE BELL      FAIR      72  68  88 SW3       30.03S
DOYLESTOWN     FAIR      72  68  87 SW5       30.02F
WILLOW GROVE   NOT AVBL
NORTH PHILA    FAIR      78  65  63 SW7       30.03F
PHILADELPHIA   NOT AVBL
$$



USA.gov is the U.S. government's official web portal to all federal, state and local government web resources and services.